When you browse on this site, cookies collect data to enhance your experience and personalize the content and advertising you see.
Visit our Privacy Policy to learn more. By continuing to use the site, you agree to this use of cookies and data.
  • In Hungary
  • List of Countries
  • For 7 days
  • Water Temperature
  • Satellite Maps
  • Weather Map
  • News
  • Weather Widgets
  • user-avatar
    Login

    Hourly Weather Solihull

    Today, 19 December, Wednesday

    Time Temperature Precipitation Wind Pressure Humidity
    00:00 +4°C° 0 mm 3 mps 739 mmHg 95%
    01:00 +4°C° 0.1 mm 4 mps 739 mmHg 95%
    02:00 +4°C° 0.1 mm 4 mps 739 mmHg 95%
    03:00 +4°C° 0.1 mm 4 mps 739 mmHg 95%
    04:00 +4°C° 0.1 mm 4 mps 739 mmHg 95%
    05:00 +4°C° 0.1 mm 3 mps 739 mmHg 95%
    06:00 +4°C° 0.1 mm 3 mps 739 mmHg 95%
    07:00 +4°C° 0.1 mm 3 mps 740 mmHg 94%
    08:00 +4°C° 0.1 mm 3 mps 740 mmHg 94%
    09:00 +5°C° 0.1 mm 3 mps 740 mmHg 93%
    10:00 +5°C° 0 mm 3 mps 740 mmHg 89%
    11:00 +6°C° 0 mm 4 mps 740 mmHg 85%
    12:00 +7°C° 0 mm 5 mps 740 mmHg 80%
    13:00 +7°C° 0 mm 4 mps 740 mmHg 81%
    14:00 +6°C° 0 mm 4 mps 740 mmHg 81%
    15:00 +6°C° 0 mm 4 mps 739 mmHg 82%
    16:00 +6°C° 0.1 mm 5 mps 739 mmHg 83%
    17:00 +5°C° 0.1 mm 5 mps 739 mmHg 85%
    18:00 +4°C° 0.1 mm 6 mps 739 mmHg 86%
    19:00 +4°C° 0.2 mm 6 mps 739 mmHg 87%
    20:00 +4°C° 0.2 mm 6 mps 739 mmHg 87%
    21:00 +4°C° 0.2 mm 6 mps 739 mmHg 87%
    22:00 +5°C° 0.1 mm 5 mps 739 mmHg 88%
    23:00 +5°C° 0.1 mm 5 mps 739 mmHg 88%

    Tomorrow, 20 December, Thursday

    Time Temperature Precipitation Wind Pressure Humidity
    00:00 +5°C° 0.1 mm 5 mps 739 mmHg 88%
    01:00 +5°C° 0.1 mm 5 mps 739 mmHg 88%
    02:00 +5°C° 0.1 mm 5 mps 739 mmHg 87%
    03:00 +5°C° 0.1 mm 5 mps 740 mmHg 87%
    04:00 +5°C° 0 mm 5 mps 740 mmHg 88%
    05:00 +5°C° 0 mm 5 mps 740 mmHg 88%
    06:00 +5°C° 0 mm 5 mps 741 mmHg 88%
    07:00 +5°C° 0 mm 5 mps 741 mmHg 88%
    08:00 +5°C° 0 mm 5 mps 741 mmHg 88%
    09:00 +5°C° 0 mm 5 mps 742 mmHg 88%
    10:00 +5°C° 0.1 mm 6 mps 742 mmHg 84%
    11:00 +5°C° 0.1 mm 6 mps 742 mmHg 81%
    12:00 +7°C° 0.1 mm 6 mps 742 mmHg 77%
    13:00 +7°C° 0.3 mm 6 mps 742 mmHg 77%
    14:00 +7°C° 0.3 mm 6 mps 742 mmHg 78%
    15:00 +7°C° 0.3 mm 6 mps 742 mmHg 78%
    16:00 +6°C° 0.1 mm 5 mps 742 mmHg 80%
    17:00 +6°C° 0.1 mm 5 mps 742 mmHg 83%
    18:00 +5°C° 0.1 mm 5 mps 742 mmHg 85%
    19:00 +5°C° 0 mm 4 mps 742 mmHg 86%
    20:00 +5°C° 0 mm 4 mps 742 mmHg 87%
    21:00 +5°C° 0 mm 4 mps 742 mmHg 89%
    22:00 +5°C° 0.1 mm 4 mps 741 mmHg 90%
    23:00 +5°C° 0.1 mm 4 mps 740 mmHg 91%

    Day after tomorrow, 21 December, Friday

    Time Temperature Precipitation Wind Pressure Humidity
    00:00 +5°C° 0.1 mm 4 mps 739 mmHg 93%
    01:00 +6°C° 1 mm 4 mps 738 mmHg 94%
    02:00 +6°C° 1 mm 4 mps 737 mmHg 96%
    03:00 +7°C° 1 mm 4 mps 735 mmHg 97%
    04:00 +8°C° 1 mm 5 mps 735 mmHg 94%
    05:00 +9°C° 1 mm 7 mps 734 mmHg 92%
    06:00 +10°C° 1 mm 8 mps 734 mmHg 89%
    07:00 +9°C° 0 mm 8 mps 735 mmHg 85%
    08:00 +7°C° 0 mm 8 mps 736 mmHg 81%
    09:00 +6°C° 0 mm 8 mps 737 mmHg 77%
    10:00 +6°C° 0 mm 8 mps 737 mmHg 75%
    11:00 +7°C° 0 mm 9 mps 738 mmHg 72%
    12:00 +7°C° 0 mm 9 mps 739 mmHg 70%
    13:00 +7°C° 0 mm 9 mps 739 mmHg 71%
    14:00 +7°C° 0 mm 8 mps 739 mmHg 72%
    15:00 +7°C° 0 mm 8 mps 740 mmHg 73%
    16:00 +8°C° 0 mm 7 mps 740 mmHg 77%
    17:00 +8°C° 0 mm 7 mps 740 mmHg 82%
    18:00 +8°C° 0 mm 7 mps 740 mmHg 86%
    19:00 +8°C° 0.8 mm 6 mps 740 mmHg 87%
    20:00 +7°C° 0.8 mm 6 mps 739 mmHg 88%
    21:00 +7°C° 0.8 mm 6 mps 739 mmHg 88%
    22:00 +7°C° 0.3 mm 6 mps 739 mmHg 89%
    23:00 +7°C° 0.3 mm 5 mps 739 mmHg 90%

    22 December, Saturday

    Time Temperature Precipitation Wind Pressure Humidity
    00:00 +7°C° 0.3 mm 5 mps 739 mmHg 91%
    01:00 +7°C° 0 mm 6 mps 739 mmHg 88%
    02:00 +5°C° 0 mm 6 mps 740 mmHg 86%
    03:00 +5°C° 0 mm 6 mps 740 mmHg 83%
    04:00 +5°C° 0 mm 7 mps 741 mmHg 83%
    05:00 +5°C° 0 mm 7 mps 742 mmHg 82%
    06:00 +5°C° 0 mm 7 mps 742 mmHg 81%
    07:00 +5°C° 0 mm 7 mps 743 mmHg 81%
    08:00 +5°C° 0 mm 7 mps 744 mmHg 81%
    09:00 +5°C° 0 mm 6 mps 746 mmHg 80%
    10:00 +5°C° 0 mm 6 mps 746 mmHg 78%
    11:00 +7°C° 0 mm 6 mps 747 mmHg 75%
    12:00 +7°C° 0 mm 6 mps 747 mmHg 73%
    13:00 +7°C° 0 mm 6 mps 748 mmHg 74%
    14:00 +7°C° 0 mm 5 mps 748 mmHg 76%
    15:00 +7°C° 0 mm 4 mps 748 mmHg 77%
    16:00 +6°C° 0 mm 4 mps 749 mmHg 80%
    17:00 +5°C° 0 mm 4 mps 750 mmHg 83%
    18:00 +4°C° 0 mm 4 mps 750 mmHg 86%
    19:00 +4°C° 0 mm 4 mps 751 mmHg 87%
    20:00 +4°C° 0 mm 4 mps 751 mmHg 88%
    21:00 +4°C° 0 mm 4 mps 752 mmHg 89%
    22:00 +4°C° 0 mm 4 mps 752 mmHg 89%
    23:00 +3°C° 0 mm 4 mps 752 mmHg 90%

    23 December, Sunday

    Time Temperature Precipitation Wind Pressure Humidity
    00:00 +3°C° 0 mm 4 mps 752 mmHg 90%
    01:00 +3°C° 0 mm 3 mps 753 mmHg 91%
    02:00 +3°C° 0 mm 3 mps 753 mmHg 91%
    03:00 +3°C° 0 mm 3 mps 753 mmHg 91%
    04:00 +3°C° 0 mm 3 mps 753 mmHg 92%
    05:00 +4°C° 0 mm 2 mps 753 mmHg 92%
    06:00 +3°C° 0 mm 2 mps 754 mmHg 93%
    07:00 +4°C° 0 mm 2 mps 754 mmHg 93%
    08:00 +4°C° 0 mm 2 mps 754 mmHg 93%
    09:00 +5°C° 0 mm 1 mps 755 mmHg 92%
    10:00 +5°C° 0 mm 1 mps 755 mmHg 91%
    11:00 +5°C° 0 mm 2 mps 755 mmHg 90%
    12:00 +6°C° 0 mm 2 mps 755 mmHg 89%
    13:00 +6°C° 0 mm 2 mps 755 mmHg 89%
    14:00 +7°C° 0 mm 1 mps 754 mmHg 90%
    15:00 +7°C° 0 mm 1 mps 754 mmHg 90%
    16:00 +5°C° 0.6 mm 2 mps 754 mmHg 92%
    17:00 +5°C° 0.6 mm 2 mps 754 mmHg 93%
    18:00 +5°C° 0.6 mm 2 mps 754 mmHg 95%
    19:00 +4°C° 0.7 mm 3 mps 754 mmHg 95%
    20:00 +4°C° 0.7 mm 3 mps 754 mmHg 95%
    21:00 +5°C° 0.7 mm 4 mps 754 mmHg 95%
    22:00 +5°C° 0.5 mm 4 mps 754 mmHg 95%
    23:00 +5°C° 0.5 mm 4 mps 754 mmHg 94%

    24 December, Monday

    Time Temperature Precipitation Wind Pressure Humidity
    00:00 +5°C° 0.5 mm 4 mps 754 mmHg 94%
    01:00 +5°C° 0.4 mm 4 mps 754 mmHg 94%
    02:00 +6°C° 0.4 mm 4 mps 754 mmHg 95%
    03:00 +6°C° 0.4 mm 4 mps 754 mmHg 95%
    04:00 +6°C° 0.4 mm 4 mps 754 mmHg 95%
    05:00 +6°C° 0.4 mm 4 mps 754 mmHg 96%
    06:00 +7°C° 0.4 mm 3 mps 753 mmHg 97%
    07:00 +8°C° 0.1 mm 3 mps 754 mmHg 97%
    08:00 +8°C° 0.1 mm 3 mps 754 mmHg 97%
    09:00 +9°C° 0.1 mm 3 mps 754 mmHg 97%
    10:00 +9°C° 0 mm 3 mps 754 mmHg 96%
    11:00 +10°C° 0 mm 4 mps 754 mmHg 94%
    12:00 +11°C° 0 mm 4 mps 755 mmHg 93%
    13:00 +11°C° 0 mm 4 mps 755 mmHg 93%
    14:00 +11°C° 0 mm 3 mps 755 mmHg 94%
    15:00 +11°C° 0 mm 3 mps 755 mmHg 94%
    16:00 +11°C° 0 mm 3 mps 755 mmHg 94%
    17:00 +10°C° 0 mm 2 mps 755 mmHg 95%
    18:00 +10°C° 0 mm 2 mps 756 mmHg 95%
    19:00 +10°C° 0 mm 2 mps 756 mmHg 95%
    20:00 +10°C° 0 mm 2 mps 756 mmHg 95%
    21:00 +10°C° 0 mm 2 mps 756 mmHg 96%
    22:00 +10°C° 0 mm 2 mps 756 mmHg 96%
    23:00 +10°C° 0 mm 2 mps 756 mmHg 96%
    Show more